Plattsburgh, NY

7:03 PM EST on December 14, 2019 (GMT -0500)
Plattsburgh International

Weather History for KPBG - October, 2019

Change the Weather History Date:

Friday, October 18, 2019

  Actual Average Record
Temperature  
Mean Temperature 48 °F 46 °F  
Max Temperature 51 °F 56 °F 81 °F (2016)
Min Temperature 45 °F 37 °F 20 °F (1972)
Degree Days  
Heating Degree Days 16 18  
Month to date heating degree days 264 277  
Since 1 July heating degree days 456 512  
Cooling Degree Days 0 0  
Month to date cooling degree days 0 0  
Year to date cooling degree days 406 345  
Moisture  
Dew Point 37 °F    
Average Humidity 69    
Maximum Humidity 77    
Minimum Humidity 61    
Precipitation  
Precipitation 0.00 in - 0.72 in (1975)
Month to date precipitation 3.07 0.00  
Year to date precipitation 24.69  
Sea Level Pressure  
Sea Level Pressure 29.78 in    
Wind  
Wind Speed 9 mph ()    
Max Wind Speed 15 mph    
Max Gust Speed 25 mph    
Visibility 10.0 miles    
Events      
T = Trace of Precipitation, MM = Missing Value Source: Averaged Metar Reports

Daily Weather History Graph

Daily Weather History Graph

Search for Another Location

Airport or City:

Astronomy

Oct. 18, 2019 Rise Set
Actual Time 7:12 AM EDT 6:04 PM EDT
Civil Twilight 6:43 AM EDT 6:34 PM EDT
Nautical Twilight 6:09 AM EDT 7:08 PM EDT
Astronomical Twilight 5:35 AM EDT 7:41 PM EDT
Moon 9:09 PM EDT (10/18) 11:52 AM EDT (10/18)
Length of Visible Light 11h 51m
Length of Day
10h 51m
Waning Gibbous, 79% of the Moon is Illuminated
Oct 18
Waning Gibbous
Oct 21
Last Quarter
Oct 27
New
Nov 4
First Quarter
Nov 12
Full

Hourly Weather History & Observations

Time (EDT) Temp. Windchill Dew Point Humidity Pressure Visibility Wind Dir Wind Speed Gust Speed Precip Events Conditions
12:53 AM 48.0 °F - 41.0 °F 77% 29.50 in 10.0 mi NW 11.5 mph - N/A   Mostly Cloudy
1:53 AM 48.9 °F - 41.0 °F 74% 29.53 in 10.0 mi WNW 8.1 mph - N/A   Overcast
2:53 AM 48.0 °F - 41.0 °F 77% 29.55 in 10.0 mi WNW 5.8 mph - N/A   Overcast
3:53 AM 48.0 °F - 39.9 °F 74% 29.58 in 10.0 mi WNW 10.4 mph 20.7 mph N/A   Overcast
4:53 AM 48.0 °F - 39.0 °F 71% 29.60 in 10.0 mi WNW 12.7 mph 19.6 mph N/A   Overcast
5:53 AM 48.0 °F - 39.0 °F 71% 29.63 in 10.0 mi NW 10.4 mph 20.7 mph N/A   Overcast
6:32 AM 46.9 °F - 39.0 °F 74% 29.65 in 10.0 mi NW 15.0 mph 20.7 mph N/A   Mostly Cloudy
6:53 AM 46.9 °F - 39.0 °F 74% 29.67 in 10.0 mi WNW 10.4 mph 18.4 mph N/A   Mostly Cloudy
7:53 AM 46.9 °F - 37.9 °F 71% 29.70 in 10.0 mi NW 11.5 mph - N/A   Overcast
8:53 AM 48.0 °F - 37.9 °F 68% 29.73 in 10.0 mi NW 10.4 mph 25.3 mph N/A   Overcast
9:16 AM 46.9 °F - 37.9 °F 71% 29.73 in 10.0 mi NW 13.8 mph 21.9 mph N/A   Overcast
9:53 AM 46.9 °F - 37.0 °F 68% 29.76 in 10.0 mi NW 11.5 mph 20.7 mph N/A   Overcast
10:14 AM 46.9 °F - 37.0 °F 68% 29.77 in 10.0 mi NW 6.9 mph 20.7 mph N/A   Overcast
10:53 AM 46.9 °F - 37.0 °F 68% 29.80 in 10.0 mi NW 8.1 mph - N/A   Overcast
11:53 AM 46.9 °F - 37.0 °F 68% 29.82 in 10.0 mi WNW 8.1 mph - N/A   Overcast
12:11 PM 46.9 °F - 37.0 °F 68% 29.81 in 10.0 mi NW 9.2 mph 17.3 mph N/A   Overcast
12:36 PM 46.9 °F - 37.0 °F 68% 29.81 in 10.0 mi WNW 9.2 mph - N/A   Overcast
12:53 PM 48.0 °F - 37.0 °F 66% 29.82 in 10.0 mi West 8.1 mph 19.6 mph N/A   Overcast
1:53 PM 48.0 °F - 37.0 °F 66% 29.83 in 10.0 mi WNW 10.4 mph 17.3 mph N/A   Overcast
2:53 PM 48.9 °F - 36.0 °F 61% 29.85 in 10.0 mi WNW 9.2 mph 20.7 mph N/A   Overcast
3:53 PM 48.9 °F - 36.0 °F 61% 29.88 in 10.0 mi WNW 10.4 mph 19.6 mph N/A   Overcast
4:53 PM 48.0 °F - 36.0 °F 63% 29.90 in 10.0 mi WNW 4.6 mph - N/A   Overcast
5:53 PM 46.9 °F - 36.0 °F 66% 29.91 in 10.0 mi WNW 11.5 mph - N/A   Overcast
6:53 PM 46.9 °F - 36.0 °F 66% 29.93 in 10.0 mi WNW 8.1 mph - N/A   Overcast
7:53 PM 46.0 °F 41.4 °F 36.0 °F 68% 29.95 in 10.0 mi West 9.2 mph - N/A   Overcast
8:53 PM 46.0 °F 44.8 °F 36.0 °F 68% 29.97 in 10.0 mi Variable 3.5 mph - N/A   Overcast
9:53 PM 46.0 °F 44.8 °F 36.0 °F 68% 29.98 in 10.0 mi WNW 3.5 mph - N/A   Overcast
10:53 PM 46.0 °F 44.8 °F 35.1 °F 66% 29.97 in 10.0 mi Variable 3.5 mph - N/A   Overcast
11:53 PM 45.0 °F 41.2 °F 34.0 °F 65% 29.98 in 10.0 mi Variable 6.9 mph - N/A   Overcast